This is the latest recevied weather packets stored in our database for station/object KN6WGU. If no packets are shown the sender has not sent any weather packets the latest 10 day(s).
| Time | Temp. | Humidity | Pressure | Rain* | Wind** | Luminosity | Snow |
|---|---|---|---|---|---|---|---|
| 1777855439 | 13.33° C | 45% | 1005.2 hPa | 0 mm | - | 0 W/m² | - |
| 1777855135 | 13.89° C | 44% | 1004.7 hPa | 0 mm | - | 1 W/m² | - |
| 1777854832 | 13.89° C | 43% | 1004.9 hPa | 0 mm | - | 1 W/m² | - |
| 1777854529 | 13.89° C | 42% | 1004.8 hPa | 0 mm | - | 2 W/m² | - |
| 1777854226 | 14.44° C | 41% | 1004.8 hPa | 0 mm | - | 4 W/m² | - |
| 1777853923 | 14.44° C | 42% | 1004.8 hPa | 0 mm | - | 5 W/m² | - |
| 1777853620 | 14.44° C | 41% | 1004.9 hPa | 0 mm | - | 7 W/m² | - |
| 1777853317 | 14.44° C | 41% | 1005 hPa | 0 mm | - | 10 W/m² | - |
| 1777853014 | 14.44° C | 41% | 1004.7 hPa | 0 mm | - | 12 W/m² | - |
| 1777852712 | 14.44° C | 42% | 1004.8 hPa | 0 mm | - | 16 W/m² | - |
| 1777852409 | 15° C | 42% | 1004.7 hPa | 0 mm | - | 18 W/m² | - |
| 1777852106 | 15° C | 41% | 1004.7 hPa | 0 mm | - | 20 W/m² | - |
| 1777851804 | 15° C | 40% | 1004.7 hPa | 0 mm | - | 23 W/m² | - |
| 1777851502 | 15° C | 39% | 1004.8 hPa | 0 mm | - | 26 W/m² | - |
| 1777851197 | 15° C | 39% | 1004.9 hPa | 0 mm | - | 28 W/m² | - |
| 1777850894 | 15.56° C | 39% | 1004.9 hPa | 0 mm | - | 34 W/m² | - |
| 1777850592 | 15.56° C | 39% | 1004.9 hPa | 0 mm | - | 34 W/m² | - |
| 1777850290 | 15.56° C | 40% | 1005 hPa | 0 mm | - | 54 W/m² | - |
| 1777849986 | 15.56° C | 40% | 1004.8 hPa | 0 mm | - | 34 W/m² | - |
| 1777849682 | 16.11° C | 38% | 1004.9 hPa | 0 mm | - | 73 W/m² | - |
| 1777849379 | 16.11° C | 40% | 1005 hPa | 0 mm | - | 104 W/m² | - |
| 1777849077 | 15.56° C | 39% | 1005 hPa | 0 mm | - | 111 W/m² | - |
| 1777848772 | 15.56° C | 39% | 1005.2 hPa | 0 mm | - | 87 W/m² | - |
| 1777848469 | 15.56° C | 39% | 1005 hPa | 0 mm | - | 59 W/m² | - |
| 1777848167 | 15.56° C | 38% | 1005.1 hPa | 0 mm | - | 57 W/m² | - |
* Rain latest hour (hover to see other rain measurements)
** Current wind speed in m/s (hover to see current wind gust speed)